IRIDIUM 33 DEB

Satellite information

Favourite Embed

Satellite Type and Status

DEBRISIN ORBIT

Key statistics

Satellite IRIDIUM 33 DEB at a glance.

Uptime

10317

Days in orbit

Revolutions

≈ 14.4

Per day

Orbit

LEO

Low Earth Orbit

Inclination

86.3

Latest

Satellite identification and parameters

Extended collection of information and parameters for IRIDIUM 33 DEB.

Object identification

Identified? True

Debris? True

Object name: IRIDIUM 33 DEB

International designator: 1997-051GC

Object number (NORAD): 34487

Object ID (CCSDS): 34487

Country: UNITED STATES OF AMERICA (US)

Current information (Y/N): Y

RCS size: SMALL

Orbital parameters

Period: 99.777 minutes

Inclination: 86.3435 deg

SMA: 7126.033 km

Apoapsis: 771.223 km

Periapsis: 724.572 km

RAAN: 12.6569 deg

Eccentricy: 0.00327325

Argument of periapsis: 130.4184 deg

Mean anomaly: 283.9789 deg

Mean motion: 14.43215052 rev/day

Mean motion (dot): 0.00000969 rev/day2

B* drag term: 0.00028053869 1/REarth

Two-line elements (TLE)

Creation date: Dec. 12, 2025, 10:14 a.m.

Reference frame: TEME

Reference center: EARTH

Epoch: Dec. 12, 2025, 2:09 a.m. UTC

TLE line 0: 0 IRIDIUM 33 DEB

TLE line 1: 1 34487U 97051GC 25346.08995141 .00000969 00000-0 28054-3 0 9991

TLE line 2: 2 34487 86.3435 12.6569 0032733 130.4184 283.9789 14.43215052882398

Live tracking on map

Real-time ground track for satellite IRIDIUM 33 DEB.

In-orbit conjunctions

A list of the most updated potential collisions computed for object IRIDIUM 33 DEB.

Target Orbit TCA Probability of collision Miss distance Type
CZ-4 DEB SSO 2025-07-19 22:36:17 0.0006146787 94.0 (m) DEBRIS
SL-8 R/B LEO 2025-05-04 22:05:07 0.000131335 658.0 (m) ROCKET BODY
CZ-6A DEB LEO 2025-01-29 16:22:54 0.0002320323 298.0 (m) DEBRIS
CZ-6A DEB LEO 2025-01-10 04:21:13 0.000624236 137.0 (m) DEBRIS
CZ-6A DEB LEO 2024-11-04 21:58:28 0.0001418288 613.0 (m) DEBRIS

Associated space launch

Iridium provides global mobile telecommunications services using a constellation of 66 low earth orbit satellites in a 86.4° inclined orbit. Although 77 satellites were originally envisioned for the system and spawned the name based on the 77th element in the periodic table, the system has been scaled back. Motorola's Satellite Communications Group designed and manufactured the Iridium satellites with Lockheed Martin providing the LM-700A spacecraft buses.

IRIDIUM 33 DEB was lifted into orbit during the mission ‘Proton-K/17S40 | Iridium 27 to 33’, on board a Proton-K/17S40 space rocket.

The launch took place on Sept. 14, 1997, 1:36 a.m. from 81/23 (81L).

For more information about the launch, click the button.

Launch to space Proton-K/17S40 | Iridium 27 to 33
Proton-K/17S40 | Iridium 27 to 33

Agency: N/A

Status: Launch Successful

Launch date: Sept. 14, 1997, 1:36 a.m. UTC

Rocket: Proton-K/17S40

Launch pad: 81/23 (81L)

Location: Baikonur Cosmodrome, Republic of Kazakhstan

...

Latest news about this satellite

There are no fresh news available about this satellite. Check back as we update our databases every day.


Newsletter sign-up

Weekly statistics, charts and insights to help you stay on top of the space industry.